Location: Piolenc
(44.1794°N, 4.7641°E)
Time: 03:25:21
(UTC+00:00)

SL-19 R/B - Pass Details

Date: 27 January 2021
Orbit: 358 x 805 km, 99.4° (Epoch: 27 February)

Event Time Altitude Azimuth Distance (km) Brightness Sun altitude
Rises 06:09:10 0° 13° (NNE) 2,702 7.8 -10.0°
Reaches altitude 10° 06:11:26 10° 11° (N) 1,728 6.8 -9.6°
Maximum altitude 06:15:05 70° 288° (WNW) 491 3.9 -9.0°
Drops below altitude 10° 06:18:15 10° 204° (SSW) 1,502 6.5 -8.5°
Sets 06:20:07 0° 202° (SSW) 2,309 7.5 -8.1°
